Location: Emory University Observatory
(33.7903°N, 84.3267°W)
Time: 15:12:49
(UTC-04:00)

Vanguard 3 - Visible Passes

Search period start: 22 October 2017 00:00
Search period end: 01 November 2017 00:00
Orbit: 510 x 3263 km, 33.3° (Epoch: 21 October)

Date Brightness Start Highest point End Pass type
(mag) Time Alt. Az. Time Alt. Az. Time Alt. Az.
22 Oct 10.0 03:37:23 41° SE 03:37:23 41° SE 03:45:59 10° E visible
22 Oct 9.0 05:41:58 35° WSW 05:49:23 74° SSE 05:58:14 10° E visible
23 Oct 10.8 02:27:52 19° E 02:27:52 19° E 02:31:04 10° E visible
23 Oct 9.4 04:32:27 60° S 04:34:05 62° SSE 04:44:45 10° E visible
23 Oct 8.7 06:37:03 17° W 06:48:30 86° S 06:56:18 10° E visible
24 Oct 10.1 03:22:53 41° ESE 03:22:53 41° ESE 03:30:44 10° E visible
24 Oct 9.0 05:27:28 44° WSW 05:33:28 79° SSE 05:43:04 10° E visible
25 Oct 10.9 02:13:16 17° E 02:13:16 17° E 02:15:51 10° E visible
25 Oct 9.4 04:17:51 68° SSE 04:17:54 68° SSE 04:29:29 10° E visible
25 Oct 8.8 06:22:26 23° W 06:32:46 88° S 06:41:13 10° E visible
26 Oct 10.2 03:08:11 39° E 03:08:11 39° E 03:15:20 10° E visible
26 Oct 9.1 05:12:46 54° WSW 05:17:28 83° S 05:27:51 10° E visible
26 Oct 8.6 07:18:08 10° W 07:31:51 84° S 07:39:13 10° ESE visible
27 Oct 11.0 01:58:29 16° E 01:58:29 16° E 02:00:24 10° E visible
27 Oct 9.5 04:03:04 70° SE 04:03:04 70° SE 04:14:06 10° E visible
27 Oct 9.0 06:07:38 29° W 06:16:57 89° S 06:26:05 10° E visible
28 Oct 10.4 02:53:20 36° E 02:53:20 36° E 02:59:49 10° E visible
28 Oct 9.2 04:57:55 64° WSW 05:01:22 86° S 05:12:34 10° E visible
28 Oct 8.8 07:02:29 13° W 07:16:09 82° SSW 07:24:08 10° ESE visible
29 Oct 11.2 01:43:36 13° E 01:43:36 13° E 01:44:46 10° E visible
29 Oct 9.6 03:48:10 66° ESE 03:48:10 66° ESE 03:58:39 10° E visible
29 Oct 9.1 05:52:44 36° W 06:01:02 88° S 06:10:54 10° E visible
30 Oct 10.5 02:38:25 32° E 02:38:25 32° E 02:44:10 10° E visible
30 Oct 9.3 04:42:59 74° WSW 04:45:10 88° S 04:57:14 10° E visible
30 Oct 9.0 06:47:33 17° W 07:00:19 78° SSW 07:08:58 10° ESE visible
31 Oct 11.3 01:28:38 11° E 01:28:38 11° E 01:28:58 10° E visible
31 Oct 9.8 03:33:13 59° E 03:33:13 59° E 03:43:06 10° E visible
31 Oct 9.2 05:37:47 43° W 05:45:00 87° S 05:55:38 10° E visible
